Regional Weather Roundup
Issued by NWS Dallas/Fort Worth, TX

Home | Current Version | Previous Version | Text Only | Print | Product List | Glossary On
Versions: 1 2 3 4 5 6 7 8 9 10 11 12 13 14 15 16 17 18 19 20 21 22 23 24 25 26 27 28 29 30 31 32 33 34 35 36 37 38 39 40 41 42 43 44 45 46 47 48 49 50
000
ASUS44 KFWD 200915
RWRFWD
NORTH TEXAS HOURLY WEATHER ROUNDUP
NATIONAL WEATHER SERVICE FORT WORTH TX
400 AM CDT MON AUG 20 2018

NOTE: "FAIR" INDICATES FEW OR NO CLOUDS BELOW 12,000 FEET WITH NO
SIGNIFICANT WEATHER AND/OR OBSTRUCTIONS TO VISIBILITY.

TXZ118-119-201000-
DALLAS/FORT WORTH METROPLEX

CITY           SKY/WX    TMP DP  RH WIND       PRES   REMARKS
DFW AIRPORT    MOCLDY    81  70  69 S7        29.88R
DALLAS LOVE    MOCLDY    84  71  65 S3        29.90R
FTW MEACHAM    CLOUDY    80  72  76 SW3       29.90R
DAL-EXECUTIVE  FAIR      82  68  62 SW3       29.91R
FTW-ALLIANCE   FAIR      79  72  79 NW3       29.90R
FTW-NAS-JRB    CLOUDY    81  69  67 S8        29.91R
FTW-SPINKS     FAIR      77  70  80 CALM      29.93R
ARLINGTON      FAIR      79  71  76 CALM      29.91R
GRAND PRAIRIE  FAIR      81  67  63 CALM      29.92R
ADDISON        FAIR      82  69  64 CALM      29.91F
MESQUITE       MOCLDY    77  73  86 CALM      29.91R
LANCASTER      FAIR      78  70  75 SW3       29.92R
$$

TXZ091>094-102>105-117-120-121-131>134-201000-
NORTH CENTRAL TEXAS

CITY           SKY/WX    TMP DP  RH WIND       PRES   REMARKS
SHRMAN/DENISON FAIR      76  73  92 S3        29.90S
GAINESVILLE    FAIR      74  71  91 CALM      29.92S
BOWIE          FAIR      72  70  93 CALM      29.92S
BRIDGEPORT     FAIR      75  72  89 CALM      29.93S
DECATUR        FAIR      76  71  84 CALM      29.92S
DENTON         FAIR      76  73  91 N3        29.90R
MCKINNEY       MOCLDY    78  74  87 S5          N/A
BONHAM         FAIR      74  72  92 W3        29.89R
GREENVILLE     FAIR      81  72  74 SW7       29.90S
ROCKWALL       FAIR      78  72  82 S8        29.91R
TERRELL        FAIR      78  71  79 S6        29.91R
WAXAHACHIE     FAIR      78  70  76 SW5       29.93R
CLEBURNE       FAIR      79  72  78 S6        29.94R
GRANBURY       MOCLDY    78  70  75 CALM      29.94R
$$

TXZ083>090-098>101-113>116-127>130-139>142-154-155-201000-
WESTERN NORTH TEXAS

CITY           SKY/WX    TMP DP  RH WIND       PRES   REMARKS
WICHITA FALLS  FAIR      74  68  81 W6        29.93R
WF-KICKAPOO    FAIR      76  71  84 W3        29.96R
VERNON         FAIR      75  63  66 N12       29.99R
ABILENE        FAIR      75  69  81 CALM      29.98R
ABILENE-DYESS  CLEAR     73  68  83 CALM      30.01R
GRAHAM         FAIR      74  73  93 CALM      29.93R
BRECKENRIDGE   MOCLDY    75  70  85 CALM      29.94R
CISCO          FAIR      72 -36   1 N7        29.98R
EASTLAND       FAIR      70  69  97 CALM      29.96R
RANGER         FAIR      72  69  90 CALM      29.96R
MINERAL WELLS  FAIR      75  70  84 NW3       29.90S
STEPHENVILLE   MOCLDY    77  64  63 CALM      29.97R
COMANCHE       FAIR      78  68  72 MISG      29.95S
BROWNWOOD      FAIR      75  68  78 SE3       29.95S
COLEMAN        FAIR      75  65  72 CALM      29.96F
BRADY          FAIR      75  66  73 S5        29.99R
$$

TXZ143>147-156>162-174-175-201000-
CENTRAL TEXAS

CITY           SKY/WX    TMP DP  RH WIND       PRES   REMARKS
WACO           FAIR      81  73  76 S10       29.92R
HILLSBORO      FAIR      78  73  83 S5        29.92S
CORSICANA      FAIR      80  72  76 S10       29.92R
MEXIA          FAIR      80  72  75 S12G24    29.92S
HEARNE         CLOUDY    81  74  79 S8        29.95S
CAMERON        FAIR      81  74  81 S12       29.94S
TEMPLE         FAIR      80  74  81 S12       29.94R
KILLEEN        FAIR      79  71  76 S10       29.94R
KILLEEN-SKYLRK FAIR      80  72  76 S12       29.94S
FORT HOOD      FAIR      80  71  74 S8        29.91R
GATESVILLE     FAIR      79  72  78 CALM      29.96R
HAMILTON       FAIR      79  72  79 S7        29.96R
LAMPASAS       FAIR      78  72  82 SW3       29.95R
$$

TXZ095>097-106>112-122>126-135>138-148>153-164>167-201000-
EAST TEXAS

CITY           SKY/WX    TMP DP  RH WIND       PRES   REMARKS
PARIS          FAIR      74  73  97 SE6       29.89R
SULPHUR SPRNGS FAIR      79  73  83 CALM      29.92R
MOUNT PLEASANT FAIR      80  70  70 SW7       29.90R
GILMER           N/A    N/A N/A N/A MISG        N/A
MINEOLA        FAIR      81  72  74 S8        29.89R
TYLER          FAIR      83  72  69 SW15      29.91R
LONGVIEW       FAIR      82  76  81 S10       29.89S
MARSHALL       FAIR      79  72  79 MISG      29.92S
ATHENS         FAIR      81  72  74 S7        29.90S
PALESTINE      FAIR      81  73  77 S12G17    29.94S
JACKSONVILLE   FAIR      80  73  77 SW12G23   29.95S
HENDERSON      FAIR      81  73  76 SW6       29.93S
CENTER         FAIR      80  74  83 S10G17    29.94S
NACOGDOCHES      N/A     81  75  82 S8          N/A
LUFKIN         FAIR      79  75  87 SW6       29.94S
$$

SUPPLEMENTAL OBSERVATIONS (NWS FORT WORTH AREA)

CITY           SKY/WX    TMP DP  RH WIND       PRES   REMARKS
DENISON DAM      N/A     81  75  83 SW7         N/A
CADDO GRASSLND   N/A     75  72  88 CALM        N/A
LBJ GRASSLAND    N/A     75  72  88 NE1         N/A
MCGREGOR         N/A     79  73  83 S9          N/A
$$

SUPPLEMENTAL OBSERVATIONS (NWS NORMAN AREA)

CITY           SKY/WX    TMP DP  RH WIND       PRES   REMARKS
GOODLETT         N/A     71  60  66 NW13      30.03R
ODELL            N/A     72  62  71 N14       30.02R
CROWELL          N/A     74  61  64 N14       30.03R
KNOX CITY        N/A     78  66  66 W3        30.01R
SEYMOUR          N/A     73  68  84 W3        29.98R
MILLERS CREEK    N/A     79  68  69 W5          N/A
$$

SUPPLEMENTAL OBSERVATIONS (NWS SAN ANGELO AREA)

CITY           SKY/WX    TMP DP  RH WIND       PRES   REMARKS
WEINERT          N/A     75  64  66 SE3       30.00S
HASKELL          N/A     72  62  72 E7        30.00R
THROCKMORTON     N/A     77  71  81 NW5       29.98R
STAMFORD         N/A     77  71  82 NE6       30.00R
CLYDE            N/A     73  68  85 N1        30.01R
HAMBY            N/A     73  70  88 VRB3        N/A
IVIE RESERVOIR   N/A     75  66  73 E3          N/A
COLORADO BEND    N/A     79  72  78 S7          N/A
$$

SUPPLEMENTAL OBSERVATIONS (NWS SHREVEPORT AREA)

CITY           SKY/WX    TMP DP  RH WIND       PRES   REMARKS
TEXARKANA        N/A     73  72  94 CALM        N/A
LINDEN           N/A     81  72  74 S2          N/A
CADDO LAKE       N/A     81  73  78 CALM        N/A
LUFKIN           N/A     81  75  83 MISG        N/A
$$

SUPPLEMENTAL OBSERVATIONS ARE A COLLECTION OF AUTOMATED INSTRUMENTS
THAT ARE MAINTAINED BY A VARIETY OF FEDERAL AND STATE AGENCIES.
CERTAIN ELEMENTS...SUCH AS HUMIDITY VALUES AND SUSTAINED WIND
SPEEDS...MAY BE APPROXIMATED.




USA.gov is the U.S. government's official web portal to all federal, state and local government web resources and services.